Regional Weather Roundup
Issued by NWS

Home | Current Version | Previous Version | Graphics & Text | Print | Product List | Glossary On
Versions: 1 2 3 4 5 6 7 8 9 10 11 12 13 14 15 16 17 18 19 20 21 22 23 24 25 26 27 28 29 30 31 32 33 34 35 36 37 38 39 40 41 42 43 44 45 46 47 48 49 50
000
ASUS45 KCYS 301110
RWRWY

WYOMING REGIONAL WEATHER ROUNDUP
NATIONAL WEATHER SERVICE CHEYENNE WY
400 AM MST FRI JAN 30 2015

NOTE:  "FAIR" INDICATES FEW OR NO CLOUDS BELOW 12,000 FEET
WITH NO SIGNIFICANT WEATHER AND/OR OBSTRUCTIONS TO VISIBILITY.

WYZ001-301200-
YELLOWSTONE NATIONAL PARK

CITY           SKY/WX    TMP DP  RH WIND       PRES   REMARKS
LK YELLOWSTONE   N/A      2  -3  80 CALM      30.29F
W YELLOWSTONE  NOT AVBL

$$
WYZ002>013-054>058-071-098>099-301200-
NORTHERN WYOMING

CITY           SKY/WX    TMP DP  RH WIND       PRES   REMARKS
JACKSON        FAIR      12  12 100 N7        30.29S WCI   2
CODY           FAIR      25  21  86 S5        30.21F WCI  19
GREYBULL       FOG       24  23  96 CALM      30.25S VSB 1/4
WORLAND        FOG       20  18  92 CALM      30.24S VSB 1/2
SHERIDAN       FAIR      24  19  81 S7        30.19F WCI  16
BUFFALO        FAIR      31   6  35 NW6       30.20F WCI  25
GILLETTE       FAIR      24  21  88 CALM      30.19F
HULETT           N/A    N/A N/A N/A MISG        N/A
NEWCASTLE      FAIR      27  21  80 CALM      30.22F

$$
WYZ014>020-022>026-101>103-301200-
CENTRAL WYOMING

CITY           SKY/WX    TMP DP  RH WIND       PRES   REMARKS
BIG PINEY      FAIR      19  15  84 CALM      30.25F
PINEDALE       FAIR      14  12  92 W6        30.26F WCI   5
DUBOIS         FAIR      21   7  53 NW7       30.21S WCI  13
LANDER         FAIR      28  22  78 CALM      30.21F
RIVERTON       FAIR      28  24  85 CALM      30.23F
CASPER         FAIR      29  24  82 W7        30.21F WCI  22
DOUGLAS        FAIR      25  21  85 W3        30.22F

$$
WYZ021-027>030-104>119-301200-
SOUTHERN WYOMING

CITY           SKY/WX    TMP DP  RH WIND       PRES   REMARKS
EVANSTON       CLOUDY    30  25  81 N6        30.22F WCI  24
KEMMERER       CLOUDY    27  23  86 NW6       30.23F WCI  20
FORT BRIDGER   PTSUNNY   30  28  92 CALM      30.26F
ROCK SPRINGS   CLOUDY    29  26  89 CALM      30.23F
DIXON          MIX PCPN  31  28  89 CALM      30.28F
RAWLINS        FAIR      27  24  89 CALM      30.24S
SARATOGA       PTSUNNY   30  27  86 CALM      30.24F
LARAMIE        FAIR      27  23  85 S3        30.22F
CHEYENNE       FAIR      27  21  78 W5        30.21F WCI  22
TORRINGTON     FAIR      27  19  72 E10       30.22F WCI  17
PINE BLUFFS    FAIR      27  23  86 CALM      30.24F

$$



USA.gov is the U.S. government's official web portal to all federal, state and local government web resources and services.